Flag for Germany Weather past 2 weeks in Braunschweig, Lower Saxony, Germany

Now
48 °F

Cool.


Feels Like: 40 °F
Forecast: 48 / 51 °F
Wind: 24 mph from West

Location: Celle Airport

Current Time: Dec 22, 2014 at 3:22:34 AM

Latest Report: Dec 22, 2014 at 2:20 AM


Visibility: 6 mi

Pressure: 29.92 "Hg

Humidity: 87%

Dew point: 45 °F

Location of BraunschweigLocation

Historic Weather in Braunschweig — Graph

°F

Braunschweig temperature yesterday

Maximum temperature yesterday: 48 °F (at 11:20 PM)
Minimum temperature yesterday: 39 °F (at 3:20 AM)
Average temperature yesterday: 43 °F

Past Weeks' High & Low Weather Summary

 TemperatureHumidityPressure
High54 °F (Dec 18, 3:20 PM)100% (Dec 7, 4:20 AM)30.36 "Hg (Dec 7, 4:20 AM)
Low32 °F (Dec 9, 8:20 PM)70% (Dec 10, 5:20 AM)29.33 "Hg (Dec 12, 1:20 PM)
Average41 °F87%29.87 "Hg
* Reported Dec 7 1:20 AM — Dec 22 1:20 AM, Braunschweig, Weather by CustomWeather, © 2014

Note: Actual official high and low records may vary slightly from our data, if they occured in-between our weather recording intervals... More about our weather records

Advertising

Braunschweig weather history for previous 24 hours

 ConditionsComfort  
Time TempWeatherWind HumidityBarometerVisibility
1:20 AM
Dec 22
48 °FCool.22 mph82%29.95 "Hg6 mi
12:20 AM48 °FCool.21 mph82%29.98 "Hg4 mi
11:20 PM
Dec 21
48 °FCool.22 mph76%29.98 "HgN/A
10:20 PM46 °FCool.21 mph82%30.01 "HgN/A
9:20 PM46 °FCool.20 mph82%30.04 "Hg6 mi
8:20 PM46 °FCool.17 mph82%30.07 "HgN/A
7:20 PM45 °FQuite cool.17 mph81%30.09 "HgN/A
6:20 PM45 °FQuite cool.15 mph81%30.09 "HgN/A
5:20 PM45 °FQuite cool.16 mph81%30.12 "HgN/A
4:20 PM45 °FQuite cool.16 mph81%30.15 "Hg6 mi
3:20 PM45 °FQuite cool.14 mph81%30.18 "Hg6 mi
2:20 PM45 °FQuite cool.17 mph81%30.18 "Hg6 mi
1:20 PM43 °FQuite cool.13 mph87%30.21 "Hg4 mi
12:20 PM43 °FQuite cool.14 mph87%30.24 "Hg5 mi
11:20 AM43 °FQuite cool.15 mph87%30.27 "Hg4 mi
10:20 AM41 °FQuite cool.13 mph87%30.27 "Hg5 mi
9:20 AM39 °FChilly.10 mph93%30.27 "Hg5 mi
8:20 AM39 °FChilly.10 mph93%30.27 "Hg5 mi
7:20 AM39 °FChilly.9 mph93%30.24 "Hg5 mi
6:20 AM41 °FQuite cool.9 mph87%30.24 "Hg5 mi
5:20 AM39 °FChilly.10 mph87%30.21 "Hg6 mi
4:20 AM39 °FChilly.9 mph87%30.21 "Hg5 mi
3:20 AM39 °FChilly.10 mph93%30.18 "Hg5 mi
Weather by CustomWeather, © 2014

See weather overviewHow to use our weather pages